Voltar ao catálogo

STARLINK-4566

AtivoComunicaçõesSSO
NORAD 53693·PAYLOAD·🇺🇸 United States

Lançado Aug 31, 2022 de Vandenberg Space Force Base

Loading…

Próximas Passagens (próximas 24 horas)

TLE

AtualizadoSource: CelesTrak SupGP

Época: Sep 15, 2026, 02:21 UTC

1 53693C 22105AX  26258.09840278  .00064273  00000+0  19946-2 0  2587
2 53693  97.2844 134.9064 0002080  94.2648   1.6529 15.33414816    12

Acompanhe STARLINK-4566 em tempo real com AllMySat

Download on the App Store